TimeWET,TemperatureF,Dew PointF,Humidity,Sea Level PressureIn,VisibilityMPH,Wind Direction,Wind SpeedMPH,Gust SpeedMPH,PrecipitationIn,Events,Conditions,WindDirDegrees,DateUTC
12:00 AM,77,58,43,29.98,6,WSW,3.5,,,,,240,2013-07-19 00:00:00
12:00 AM,77.0,59.0,54,30.04,-9999.0,NNW,3.5,-,N/A,,Clear,330,2013-07-19 00:00:00
12:30 AM,75.2,59.0,57,30.04,-9999.0,West,4.6,-,N/A,,Clear,260,2013-07-19 00:30:00
1:00 AM,73.4,59.0,61,30.04,-9999.0,SW,5.8,-,N/A,,Clear,230,2013-07-19 01:00:00
1:30 AM,73.4,59.0,61,30.01,-9999.0,SW,6.9,-,N/A,,Clear,220,2013-07-19 01:30:00
2:00 AM,71.6,60.8,69,30.01,-9999.0,WSW,6.9,-,N/A,,Clear,240,2013-07-19 02:00:00
2:30 AM,69.8,60.8,73,30.01,6.2,WSW,6.9,-,N/A,,Unknown,240,2013-07-19 02:30:00
3:00 AM,69,61,68,29.96,6,WSW,5.8,,,,,250,2013-07-19 03:00:00
3:00 AM,68.0,60.8,78,30.01,6.2,WSW,5.8,-,N/A,,Unknown,250,2013-07-19 03:00:00
3:30 AM,68.0,60.8,78,30.01,-9999.0,WSW,8.1,-,N/A,,Clear,250,2013-07-19 03:30:00
4:00 AM,68.0,60.8,78,30.01,-9999.0,WSW,5.8,-,N/A,,Clear,250,2013-07-19 04:00:00
4:30 AM,66.2,62.6,88,30.01,-9999.0,West,6.9,-,N/A,,Clear,270,2013-07-19 04:30:00
5:00 AM,66.2,62.6,88,30.01,-9999.0,WSW,5.8,-,N/A,,Clear,250,2013-07-19 05:00:00
5:30 AM,66.2,62.6,88,30.01,-9999.0,SW,6.9,-,N/A,,Clear,230,2013-07-19 05:30:00
6:00 AM,65,62,86,29.97,6,SW,5.8,,,,,230,2013-07-19 06:00:00
6:00 AM,64.4,62.6,94,30.01,-9999.0,SW,5.8,-,N/A,,Clear,230,2013-07-19 06:00:00
6:30 AM,64.4,62.6,94,30.01,-9999.0,WSW,4.6,-,N/A,,Clear,250,2013-07-19 06:30:00
7:00 AM,66.2,62.6,88,30.01,-9999.0,West,5.8,-,N/A,,Clear,260,2013-07-19 07:00:00
7:30 AM,68.0,62.6,83,30.01,-9999.0,West,8.1,-,N/A,,Clear,280,2013-07-19 07:30:00
8:00 AM,69.8,62.6,78,30.04,-9999.0,West,5.8,-,N/A,,Clear,270,2013-07-19 08:00:00
8:30 AM,71.6,60.8,69,30.04,-9999.0,West,8.1,-,N/A,,Clear,280,2013-07-19 08:30:00
9:00 AM,73,62,59,29.96,6,WNW,8.1,,,,,290,2013-07-19 09:00:00
9:00 AM,73.4,60.8,65,30.04,-9999.0,WNW,6.9,-,N/A,,Clear,300,2013-07-19 09:00:00
9:30 AM,75.2,60.8,61,30.04,-9999.0,WNW,8.1,-,N/A,,Clear,290,2013-07-19 09:30:00
10:00 AM,77.0,62.6,61,30.01,-9999.0,WNW,6.9,-,N/A,,Clear,290,2013-07-19 10:00:00
10:30 AM,77.0,59.0,54,30.01,-9999.0,NW,5.8,-,N/A,,Clear,320,2013-07-19 10:30:00
11:00 AM,80.6,57.2,45,30.01,-9999.0,Variable,4.6,-,N/A,,Clear,0,2013-07-19 11:00:00
11:30 AM,82.4,57.2,42,30.01,-9999.0,Variable,4.6,-,N/A,,Clear,0,2013-07-19 11:30:00
12:00 PM,84,53,25,29.91,6,NNW,3.5,,,,,330,2013-07-19 12:00:00
12:00 PM,84.2,55.4,37,30.01,-9999.0,Variable,4.6,-,N/A,,Clear,0,2013-07-19 12:00:00
12:30 PM,86.0,53.6,33,30.01,-9999.0,North,5.8,-,N/A,,Clear,360,2013-07-19 12:30:00
1:00 PM,87.8,51.8,29,30.01,-9999.0,Variable,4.6,-,N/A,,Clear,0,2013-07-19 13:00:00
1:30 PM,87.8,46.4,24,29.98,-9999.0,NW,4.6,-,N/A,,Clear,320,2013-07-19 13:30:00
2:00 PM,89.6,48.2,24,29.98,-9999.0,Variable,6.9,-,N/A,,Clear,0,2013-07-19 14:00:00
2:30 PM,89.6,48.2,24,29.98,-9999.0,Variable,5.8,-,N/A,,Clear,0,2013-07-19 14:30:00
3:00 PM,92,50,15,29.86,6,NNE,3.5,,,,,30,2013-07-19 15:00:00
3:00 PM,91.4,48.2,23,29.98,-9999.0,Variable,4.6,-,N/A,,Clear,0,2013-07-19 15:00:00
3:30 PM,91.4,48.2,23,29.95,-9999.0,NNW,6.9,-,N/A,,Clear,330,2013-07-19 15:30:00
4:00 PM,91.4,48.2,23,29.95,-9999.0,NW,6.9,-,N/A,,Clear,320,2013-07-19 16:00:00
4:30 PM,93.2,50.0,23,29.95,-9999.0,NNW,6.9,-,N/A,,Clear,330,2013-07-19 16:30:00
5:00 PM,93.2,50.0,23,29.95,-9999.0,Variable,6.9,-,N/A,,Clear,0,2013-07-19 17:00:00
5:30 PM,93.2,48.2,21,29.95,-9999.0,North,8.1,-,N/A,,Clear,10,2013-07-19 17:30:00
6:00 PM,92,49,14,29.83,6,North,5.8,,,,,350,2013-07-19 18:00:00
6:00 PM,93.2,48.2,21,29.95,-9999.0,North,5.8,-,N/A,,Clear,350,2013-07-19 18:00:00
6:30 PM,91.4,51.8,26,29.95,-9999.0,NNW,11.5,-,N/A,,Clear,340,2013-07-19 18:30:00
7:00 PM,87.8,53.6,31,29.95,-9999.0,North,13.8,-,N/A,,Clear,350,2013-07-19 19:00:00
7:30 PM,84.2,55.4,37,29.95,-9999.0,North,15.0,-,N/A,,Clear,350,2013-07-19 19:30:00
8:00 PM,82.4,55.4,39,29.98,-9999.0,North,12.7,-,N/A,,Clear,360,2013-07-19 20:00:00
8:30 PM,80.6,55.4,42,30.01,-9999.0,North,10.4,-,N/A,,Clear,360,2013-07-19 20:30:00
9:00 PM,78.8,55.4,44,30.01,-9999.0,NNE,5.8,-,N/A,,Clear,30,2013-07-19 21:00:00
9:30 PM,77.0,55.4,47,30.01,-9999.0,NE,3.5,-,N/A,,Clear,50,2013-07-19 21:30:00
10:00 PM,77.0,55.4,47,30.04,-9999.0,ENE,4.6,-,N/A,,Clear,70,2013-07-19 22:00:00
10:30 PM,75.2,55.4,50,30.04,-9999.0,Variable,2.3,-,N/A,,Clear,0,2013-07-19 22:30:00
11:00 PM,75.2,55.4,50,30.04,-9999.0,ENE,3.5,-,N/A,,Clear,60,2013-07-19 23:00:00
11:30 PM,75.2,55.4,50,30.04,-9999.0,ENE,3.5,-,N/A,,Clear,70,2013-07-19 23:30:00